Theta_e
313 316 318 320 317 315 315 314 315 315 314 316 316 317 317 316 315 315 316 317 314 315 317 316 315 314 314 314 313 312 313 312 311 311 312 313 315 315 315 315 315 316 316 317 316 315 315 315 314 314 314 313 313 312 312 311 310 310 309 309 309 309 309 308 307 307 306 305 304 303 303 303 302 301 301 300 300 299 299 299 299 299 299 299 299 299
315 317 318 318 316 315 315 315 314 314 314 315 316 316 316 316 316 315 316 318 315 315 316 316 315 314 313 314 313 313 313 312 311 311 312 312 313 314 314 314 315 316 316 316 316 315 315 315 314 314 313 313 313 312 312 311 310 310 309 309 309 309 309 309 308 308 307 307 306 306 306 305 304 302 302 302 301 300 299 299 299 299 299 299 299 299
316 317 316 315 314 315 315 315 315 315 315 316 316 316 317 317 317 315 317 318 314 315 318 318 315 314 313 313 313 312 312 312 313 313 314 314 313 313 314 314 315 316 316 315 315 315 315 315 314 314 313 313 313 312 312 311 310 309 309 309 309 309 309 309 308 308 307 307 306 306 305 305 304 303 302 302 301 300 299 298 298 298 298 299 299 299
316 317 315 313 314 316 315 315 316 315 315 317 317 317 317 316 316 315 317 319 315 315 320 319 315 313 313 313 313 313 312 313 314 314 315 315 315 315 315 315 315 315 315 315 315 315 315 315 314 314 314 313 312 312 311 311 310 310 309 309 309 309 309 308 308 307 307 306 305 304 304 303 302 302 301 300 299 299 298 298 298 298 298 298 298 298
315 316 316 315 315 316 316 316 317 316 315 316 317 317 316 316 317 315 316 318 317 317 318 316 315 315 315 314 314 314 314 313 313 314 314 314 315 315 315 315 316 315 315 315 315 315 315 315 314 314 314 313 312 312 311 311 310 310 310 309 309 309 309 308 308 307 306 305 304 303 302 301 300 299 299 299 299 298 298 297 298 298 298 298 298 298
313 314 315 318 319 318 317 317 318 318 316 315 317 318 317 317 317 316 317 316 318 322 318 315 318 319 319 318 315 315 316 315 313 313 313 313 314 315 314 316 316 316 315 315 315 315 315 315 315 314 314 313 313 312 312 311 310 310 310 309 309 309 309 308 307 307 306 305 304 304 303 302 300 300 299 299 300 299 299 298 298 298 297 298 297 297
314 314 315 319 321 321 319 319 321 320 317 316 320 323 319 318 319 318 319 318 322 326 318 315 320 320 319 320 318 316 317 317 315 315 314 312 313 314 315 316 317 316 315 315 315 315 315 315 315 314 314 314 313 313 312 311 310 310 309 309 309 309 308 308 307 307 306 305 305 304 304 303 303 302 302 301 301 300 300 299 298 298 297 297 297 297
316 315 318 319 319 321 320 318 322 321 317 317 323 328 324 321 321 320 320 322 324 324 317 316 320 319 318 318 318 317 317 318 317 317 315 312 312 314 317 317 317 317 316 315 315 315 316 315 315 314 315 314 313 312 311 310 310 309 309 309 308 308 308 308 307 307 306 306 305 304 303 303 303 303 303 302 301 300 300 298 298 297 297 297 297 297
319 319 321 321 318 319 318 318 321 321 319 319 321 325 324 322 322 321 320 322 323 320 318 318 318 319 318 317 317 316 316 317 316 315 316 313 312 314 317 317 316 316 316 315 315 315 315 315 315 315 315 314 313 312 311 311 310 309 309 309 308 308 308 307 307 307 306 306 305 304 303 303 302 302 301 300 300 300 299 298 297 297 297 297 296 297
319 318 317 321 321 318 321 324 324 323 320 318 318 323 325 325 323 320 318 319 321 319 318 319 318 318 318 316 318 316 315 317 315 315 316 313 313 314 316 317 316 316 316 315 314 314 315 315 315 315 314 314 313 312 311 310 310 309 309 308 308 308 308 308 307 307 307 306 306 305 304 303 302 301 300 299 299 299 299 298 297 297 296 296 296 296
313 311 312 317 318 317 322 320 315 318 318 315 318 322 326 328 325 324 323 321 320 318 318 320 318 316 317 317 318 317 316 317 316 315 315 313 312 313 315 316 316 317 316 315 314 314 315 315 315 315 314 313 312 311 311 310 309 309 309 309 308 308 308 307 307 307 307 307 307 306 305 304 303 301 300 299 299 298 298 298 297 297 297 296 296 296
312 311 314 316 312 313 319 315 310 313 314 316 323 323 323 327 326 324 323 319 318 318 318 320 319 316 317 317 317 317 316 316 316 316 317 317 314 313 315 316 316 317 316 315 314 314 315 315 314 314 313 313 312 311 311 310 310 309 309 309 309 309 308 308 308 308 308 308 308 307 306 305 303 302 301 300 300 299 299 298 297 297 296 296 296 296
315 314 315 315 312 313 318 318 317 316 314 317 323 321 320 322 322 320 321 320 319 319 317 317 317 316 316 316 316 316 317 317 316 315 316 317 314 313 316 317 317 317 316 315 314 314 315 315 314 314 313 313 312 312 311 311 310 310 309 309 309 309 309 309 308 308 308 308 308 308 307 306 304 302 302 301 300 300 299 299 298 297 297 296 296 296
320 318 314 314 313 314 316 317 318 318 316 316 318 320 320 320 319 320 324 323 318 319 319 316 316 317 317 318 319 317 316 317 315 313 313 314 314 315 317 317 316 316 316 315 315 314 315 315 314 314 314 313 312 312 312 312 311 311 310 310 310 310 309 309 309 309 309 309 309 308 307 306 304 303 302 301 300 300 299 298 298 298 297 297 297 296
321 318 316 317 316 315 315 314 316 320 317 314 317 319 318 323 326 322 323 322 318 324 324 315 317 321 317 319 323 319 315 313 312 313 314 314 315 316 316 316 316 316 315 315 314 315 315 315 314 314 314 313 313 313 313 313 312 311 311 311 310 310 310 310 310 309 310 310 309 308 307 306 306 304 303 301 301 300 299 298 298 298 297 297 297 296
318 318 318 315 314 314 314 314 316 320 319 315 317 319 316 321 325 318 319 320 317 322 321 315 320 324 317 316 319 317 315 313 312 312 312 312 314 315 314 315 315 315 315 315 315 315 315 315 315 314 314 313 313 313 313 313 313 312 312 312 311 311 311 311 310 310 310 310 309 308 307 306 306 305 303 302 301 300 299 298 298 298 297 297 296 296
315 320 320 312 311 312 312 312 314 316 319 316 316 317 315 318 320 317 321 321 316 317 318 316 320 320 316 316 316 315 315 315 314 313 311 310 312 313 312 314 315 314 315 315 316 316 315 315 315 314 314 313 312 313 313 314 313 313 312 312 312 311 310 310 310 310 309 309 309 308 307 306 306 306 306 304 302 300 299 298 297 297 296 296 295 295
317 318 319 314 315 312 306 307 312 311 313 317 318 317 316 317 319 320 323 322 319 318 318 317 317 316 316 317 318 318 317 316 316 316 314 311 310 310 311 313 314 315 315 316 316 316 315 315 314 314 313 313 313 313 313 313 313 313 312 312 312 311 311 311 310 309 309 309 309 309 307 306 306 306 306 305 303 301 299 298 297 296 296 295 295 294
318 316 318 315 316 314 307 309 315 311 309 314 317 317 317 320 321 320 320 320 319 318 318 317 317 316 315 316 316 317 317 317 317 316 315 314 311 310 310 312 313 315 316 316 316 316 315 315 314 313 313 313 313 313 313 313 313 312 312 312 312 311 311 310 309 309 308 308 309 309 308 307 306 305 304 304 303 301 300 299 298 297 296 295 294 294
316 316 318 314 312 314 311 312 318 316 311 311 313 315 315 318 321 321 319 318 318 317 317 318 317 317 317 317 316 316 316 317 316 314 314 314 311 310 311 311 313 315 316 316 315 315 314 314 314 313 313 313 312 312 312 313 313 312 312 312 311 311 310 309 308 308 308 308 309 309 308 307 306 304 303 303 303 303 301 299 298 297 296 295 294 293
316 316 316 314 311 312 312 313 317 318 315 313 314 316 314 313 317 319 317 317 318 316 316 317 317 316 316 317 316 315 317 318 316 315 315 313 310 311 312 312 312 314 315 315 315 314 314 314 314 313 313 312 312 312 312 312 312 312 311 311 311 311 310 309 308 308 308 308 308 308 308 307 306 304 303 301 301 302 301 300 299 298 296 295 294 294
316 317 316 315 314 314 314 314 314 315 316 315 315 316 315 314 315 316 315 316 316 315 316 316 316 316 315 316 315 313 317 320 317 317 317 312 309 311 313 312 313 313 314 315 314 314 314 314 313 313 312 312 312 312 312 312 312 311 311 311 311 310 310 309 309 308 308 308 307 308 308 307 305 304 303 301 300 300 301 301 300 298 296 295 294 294
315 317 316 316 316 317 317 315 314 314 313 314 315 315 315 314 314 316 316 316 316 315 314 315 315 316 315 315 315 313 314 315 313 313 314 310 309 312 314 314 314 313 313 315 314 314 314 313 313 313 312 312 312 311 312 312 311 311 311 310 310 310 310 309 309 309 308 307 307 307 307 305 305 303 302 302 300 299 301 301 300 298 297 296 294 293
313 316 315 314 317 320 319 315 313 313 312 313 315 315 314 313 313 315 314 313 315 315 314 315 315 315 315 315 316 315 313 310 309 310 310 309 310 312 313 313 315 314 314 315 313 313 314 313 313 312 312 312 312 311 311 311 311 311 310 310 310 310 310 309 309 308 307 306 306 306 306 305 304 303 302 302 301 299 300 301 300 298 296 295 294 293
314 316 316 315 317 319 318 315 313 313 314 314 316 316 315 314 313 314 313 313 313 313 313 314 314 314 315 315 315 315 312 311 310 309 308 308 309 311 311 312 314 314 314 314 313 313 313 312 312 312 312 312 311 311 311 311 311 311 310 310 310 309 309 309 308 308 307 305 304 305 306 305 304 304 303 302 301 300 299 298 299 297 296 295 294 293
314 315 316 316 317 317 317 317 315 315 314 313 314 315 314 314 314 314 314 314 314 314 314 314 314 314 314 313 313 313 312 313 312 309 309 310 310 310 311 312 313 313 313 313 313 313 313 312 312 312 312 312 311 311 311 311 311 311 310 310 310 310 309 308 308 307 306 305 303 304 305 305 304 304 303 302 301 300 298 297 297 296 295 294 293 292
312 313 314 314 315 316 316 316 316 316 315 313 313 314 313 314 315 313 313 314 314 314 314 314 314 314 314 313 313 312 312 313 312 311 311 311 311 311 311 311 312 312 312 312 312 312 312 312 312 312 312 311 311 311 311 311 311 311 310 310 310 310 309 308 308 307 306 305 303 304 305 305 305 304 303 302 300 299 298 297 296 295 294 294 293 292
311 311 313 313 313 315 315 315 315 314 314 313 314 314 313 314 314 313 313 313 313 314 314 314 314 314 314 313 312 313 312 312 313 313 312 311 311 312 311 311 311 312 312 312 312 312 312 312 312 312 311 311 311 311 311 311 311 310 310 310 309 310 309 308 307 307 306 304 303 303 305 306 305 303 302 300 299 298 297 296 295 294 293 293 293 292
312 311 313 313 312 313 313 313 314 313 313 313 313 313 313 313 313 313 313 312 313 313 314 314 314 314 313 313 312 313 312 313 313 313 312 312 312 311 311 311 311 311 311 311 311 312 312 312 312 311 311 311 311 311 310 310 310 310 310 310 309 310 309 309 308 307 305 304 303 304 304 305 304 302 300 299 298 297 297 296 295 294 293 292 292 292
311 311 312 312 312 313 313 312 312 312 313 312 312 312 312 312 312 312 312 312 312 313 313 313 313 313 313 312 312 312 312 313 312 312 312 312 311 311 311 311 310 310 310 310 311 311 311 311 311 311 311 311 310 310 310 310 310 310 310 310 309 309 309 309 307 306 305 305 304 303 303 303 302 301 300 298 298 297 296 295 294 293 292 292 292 291
310 312 313 313 312 312 312 312 312 312 312 312 313 312 312 312 312 312 312 312 312 313 312 312 313 313 312 312 312 312 312 312 312 312 312 312 312 311 311 310 310 310 310 310 310 310 311 311 310 310 310 310 310 310 310 310 310 310 310 309 309 309 309 308 307 306 305 305 304 303 302 302 301 300 299 298 297 296 296 295 294 293 292 292 291 291
309 311 312 313 313 313 313 312 312 312 312 312 312 312 312 312 312 312 312 313 313 313 313 313 313 312 312 311 312 312 311 312 312 311 312 312 312 311 311 310 310 310 310 310 310 310 310 310 310 310 310 310 310 310 310 310 310 310 310 309 309 309 309 308 307 306 305 304 303 302 302 302 301 300 299 298 297 296 295 294 293 293 292 291 291 291
309 310 311 313 314 314 314 313 312 312 313 313 313 313 312 312 312 313 313 313 312 313 313 313 313 312 312 312 312 311 311 311 311 311 311 311 311 311 311 310 310 310 310 310 310 310 310 310 311 311 310 311 310 310 311 311 310 310 310 310 309 309 309 308 307 306 305 304 303 303 302 302 301 300 299 298 297 296 295 294 293 292 292 291 291 290
309 310 311 313 314 314 315 314 314 314 315 316 316 314 312 312 313 313 313 313 312 312 312 312 312 312 312 312 311 312 311 311 311 311 311 311 311 311 311 311 310 310 310 310 310 310 310 310 311 311 311 311 311 311 311 311 310 310 310 310 309 309 309 308 307 306 305 304 303 303 302 301 300 299 298 297 296 295 295 294 293 292 291 291 291 290
310 310 310 312 313 313 314 314 315 316 316 316 317 314 311 312 312 313 313 313 312 312 312 312 312 311 311 311 311 311 311 311 311 311 311 311 311 311 310 310 310 310 310 310 310 310 310 310 310 311 311 311 311 311 311 310 310 310 309 309 309 309 308 308 307 306 305 304 304 303 302 301 300 299 298 297 296 295 294 293 293 292 291 291 290 290
310 310 310 311 312 312 313 314 316 316 314 313 314 313 311 311 312 312 312 312 311 311 312 312 311 311 311 311 311 311 311 311 311 311 311 311 310 309 309 309 309 310 310 309 310 309 310 310 310 311 311 311 311 311 310 310 309 309 309 309 309 308 308 307 306 305 305 304 304 303 302 301 299 298 297 296 296 295 294 293 292 292 291 290 290 289
310 310 311 311 312 313 313 313 314 314 313 312 314 314 312 311 312 312 312 312 310 309 310 310 310 311 310 310 310 310 310 310 310 310 309 308 307 306 306 306 307 308 308 309 309 309 310 310 310 310 310 311 311 311 310 310 309 309 309 309 309 308 308 307 306 306 305 305 304 303 302 301 300 298 297 296 296 295 294 293 292 291 291 290 290 289
309 310 310 311 312 313 313 313 313 314 314 313 314 314 311 310 311 312 312 312 308 304 305 306 306 307 307 306 306 306 308 310 310 309 307 304 302 302 303 303 304 305 305 306 307 308 308 309 309 310 310 310 310 310 310 310 309 309 308 308 308 308 307 307 306 306 305 305 304 303 302 301 300 299 298 297 297 296 294 293 292 291 291 290 289 288
308 309 309 311 312 312 313 314 313 314 314 312 311 312 310 310 310 310 312 311 305 300 301 301 300 300 301 301 301 302 305 307 307 304 302 300 299 299 299 300 301 302 303 304 304 305 306 307 307 308 309 309 310 310 309 309 309 308 308 308 308 308 307 307 307 307 307 306 305 305 304 302 301 299 298 297 296 295 294 293 292 291 290 290 289 288
308 308 308 310 311 310 312 312 312 314 312 304 302 304 305 306 308 311 313 310 303 300 300 299 298 297 297 297 298 298 300 301 300 299 298 297 297 296 296 297 298 298 300 301 302 302 304 306 306 306 307 307 308 308 309 309 308 308 308 308 307 307 307 308 308 308 307 306 305 305 304 303 301 299 298 297 295 294 293 292 291 290 289 289 288 287
306 307 308 309 309 310 311 310 311 312 306 298 298 300 300 304 311 312 307 303 300 299 298 297 296 296 295 295 296 295 296 297 296 295 295 295 295 295 295 296 296 296 297 298 299 299 300 303 305 305 305 306 306 306 307 307 307 307 308 307 308 308 308 308 308 307 306 305 304 304 303 302 301 299 297 295 293 292 291 291 290 290 289 288 287 286
301 304 305 307 308 309 310 309 310 310 303 297 297 299 298 303 307 303 298 297 298 298 296 296 295 294 293 294 294 293 294 294 294 294 294 294 294 294 295 295 296 296 297 297 298 298 297 298 301 303 304 305 304 305 305 305 306 306 306 307 308 308 308 308 307 305 305 305 304 304 303 301 300 298 295 293 292 291 291 290 289 288 288 287 287 286
298 300 300 301 304 306 307 309 311 308 301 297 297 297 297 298 298 296 296 299 298 296 294 294 294 293 293 293 293 293 293 293 293 294 294 294 294 294 295 295 295 296 296 297 297 297 297 297 298 300 302 303 303 303 304 304 304 304 305 306 306 306 306 306 305 304 304 304 303 303 302 301 299 297 295 293 292 291 290 289 288 287 287 287 286 286
298 298 297 299 302 301 302 304 304 300 298 297 297 296 295 295 295 295 297 298 296 294 293 294 293 292 292 293 292 293 293 293 294 294 294 295 295 295 296 296 296 297 297 297 298 298 298 299 299 299 301 301 302 302 303 304 304 304 304 305 305 305 305 304 304 304 303 303 302 301 301 299 298 296 294 293 291 290 289 288 288 287 286 286 286 286
296 296 296 297 298 298 298 299 298 296 296 296 296 295 294 294 295 296 296 294 293 293 293 293 292 292 293 293 293 293 293 293 294 294 294 295 295 296 296 296 296 297 297 297 298 298 298 299 299 300 301 301 302 303 303 304 304 304 305 305 304 303 303 303 303 303 303 302 301 301 300 298 296 295 293 292 290 289 288 288 287 287 286 285 285 285
295 295 294 295 295 295 295 295 295 294 294 294 294 293 294 295 296 295 293 292 292 292 292 292 292 293 293 293 293 293 293 293 294 294 294 294 294 295 295 295 295 295 295 295 295 295 296 297 298 299 300 300 301 302 303 303 303 303 304 304 303 303 302 302 301 301 301 301 301 300 298 297 296 294 292 290 289 288 288 288 287 287 286 285 284 285
293 293 293 293 293 293 292 293 293 293 293 293 293 292 293 295 295 293 291 292 292 292 292 292 292 292 292 291 291 291 291 292 292 292 292 292 292 292 292 293 293 293 293 293 293 294 294 295 297 298 298 298 299 300 301 301 302 302 302 303 303 302 301 301 300 300 300 300 299 298 297 296 296 294 292 290 288 287 286 287 286 287 286 285 285 284
292 292 291 291 291 292 291 292 293 293 293 292 291 290 291 292 292 291 291 292 291 291 291 291 291 290 289 288 288 289 289 290 290 290 290 290 290 290 291 291 291 292 292 292 292 293 293 294 295 296 296 297 297 298 299 300 300 300 301 301 301 301 300 300 300 300 299 299 298 298 297 296 295 294 292 290 288 287 286 286 286 286 286 285 285 284
291 291 291 291 291 291 291 292 292 292 291 290 290 290 290 290 290 290 291 291 290 290 289 289 288 288 287 287 287 288 288 288 288 289 289 289 289 289 290 290 290 290 290 290 291 291 292 292 292 293 293 294 295 296 297 298 299 299 300 300 300 300 300 300 300 299 299 298 298 297 296 295 294 293 291 290 288 287 286 285 285 285 285 285 285 285
290 290 291 291 290 290 290 291 291 290 289 289 289 290 290 290 290 290 290 289 288 287 287 286 287 287 287 287 287 287 287 287 287 287 287 287 288 288 288 288 288 289 289 289 289 289 290 290 290 291 291 292 292 293 294 294 296 298 299 299 299 299 300 300 299 299 298 298 297 296 295 294 294 292 290 289 287 286 285 284 283 284 284 283 284 284
290 290 290 290 290 290 290 290 290 289 288 289 289 289 289 289 289 288 288 287 286 285 285 285 285 285 286 286 286 286 285 285 286 286 286 286 286 287 287 287 287 287 287 287 288 288 289 289 289 290 290 290 291 292 293 293 294 295 297 298 299 299 299 299 298 298 298 297 297 296 295 294 294 292 290 288 286 286 285 283 281 281 282 282 283 284
Wind_Speed
12 6 3 6 10 11 9 11 15 14 9 8 8 8 10 8 10 12 11 7 9 6 7 13 15 15 18 19 17 25 27 19 21 23 24 29 33 37 39 39 41 43 49 50 46 43 39 38 38 37 36 36 38 40 41 42 42 43 43 42 39 37 37 38 38 38 39 41 42 43 43 43 42 40 39 38 37 36 35 34 33 31 30 28 27 26
8 6 7 14 15 12 9 11 13 11 10 10 9 10 10 7 12 14 9 7 7 5 8 11 14 16 16 18 17 19 16 13 20 22 24 31 34 38 39 40 43 46 50 47 43 42 37 35 37 37 37 37 39 40 41 43 43 43 42 41 39 38 39 39 39 39 39 40 41 41 42 42 42 41 41 39 38 37 36 36 34 33 31 29 28 27
5 6 12 17 14 9 8 8 9 10 10 9 8 8 8 6 10 12 8 7 4 5 7 9 11 13 14 17 16 15 13 16 27 28 31 36 33 34 37 40 44 46 46 44 42 40 36 34 35 36 36 37 39 39 40 42 42 43 42 41 40 39 40 40 40 39 39 39 40 40 40 40 40 41 41 39 38 37 38 37 36 34 32 31 30 29
6 8 14 17 11 9 11 9 8 9 7 8 9 8 9 6 7 10 6 4 3 4 5 6 9 8 8 12 14 19 22 23 30 34 37 41 37 38 41 41 43 43 42 42 40 37 34 33 34 35 36 37 38 39 41 43 43 43 42 41 41 40 40 40 40 39 39 39 39 40 40 40 39 39 39 39 39 39 39 38 38 36 34 33 32 31
12 8 12 13 10 11 13 11 8 6 8 10 10 9 10 10 10 12 7 4 3 4 5 5 9 7 8 13 14 17 21 22 26 30 33 40 42 44 46 45 46 46 44 42 39 35 33 33 34 35 35 36 38 40 41 43 43 42 41 40 40 40 40 39 39 40 40 40 41 41 42 41 41 40 40 41 42 42 42 41 39 38 36 34 33 32
13 10 10 9 9 12 12 9 8 7 9 11 9 11 14 13 13 13 9 6 5 6 4 3 7 8 8 14 16 11 10 12 16 19 24 34 40 41 44 47 49 48 44 42 40 36 33 33 34 34 35 37 38 39 40 41 40 39 39 39 39 40 39 39 39 40 40 41 42 43 44 45 45 45 46 46 46 45 43 42 41 39 37 36 35 33
7 10 11 10 11 11 9 7 8 11 9 10 6 11 14 11 10 11 7 3 4 6 3 3 3 8 5 8 12 8 7 10 11 11 16 26 33 36 40 45 46 43 40 38 36 34 33 34 35 35 35 36 37 38 38 38 38 38 38 38 39 39 39 39 39 39 40 41 42 44 45 45 46 47 48 47 46 44 42 41 40 39 38 37 36 34
4 8 10 13 12 8 8 9 8 11 8 7 4 8 9 8 9 8 5 5 4 4 3 2 3 7 12 7 10 10 10 11 13 12 13 18 26 33 38 42 42 40 38 34 32 32 33 35 36 36 34 34 34 35 37 37 37 38 37 37 38 39 39 38 38 38 38 39 40 42 44 45 46 47 46 45 44 42 42 41 41 40 39 38 37 35
3 5 9 11 8 7 8 8 7 11 7 6 3 5 5 5 5 1 2 4 2 4 4 4 5 4 14 7 9 11 11 11 15 16 13 15 24 33 38 41 41 39 37 34 32 31 33 35 35 33 32 31 32 34 35 35 36 37 37 37 38 39 39 38 37 37 36 36 38 40 42 44 45 46 45 45 43 42 42 42 41 41 40 39 38 36
1 4 6 8 6 8 6 2 5 10 8 4 5 4 4 3 3 5 2 1 3 5 6 6 7 3 15 9 6 6 8 10 13 13 13 15 24 33 37 41 41 39 37 35 32 30 31 33 31 30 30 30 31 32 33 34 35 36 37 38 38 38 38 37 36 35 34 34 36 38 41 42 43 45 45 45 44 43 42 42 42 42 41 40 39 38
2 2 2 5 6 5 5 3 1 4 4 3 6 5 6 5 5 4 2 4 2 9 6 10 11 8 11 9 5 5 5 10 11 8 10 13 20 30 36 39 40 38 37 35 31 29 29 29 28 28 29 29 31 31 33 35 36 37 37 38 38 38 37 36 36 34 33 33 34 35 38 41 42 44 45 45 45 45 44 44 43 43 42 41 39 38
4 1 2 4 6 5 6 3 2 2 2 4 5 4 3 5 4 5 4 4 2 10 5 12 14 12 11 7 2 3 3 7 9 8 10 11 16 28 34 36 35 32 33 33 30 29 28 27 28 29 29 30 31 32 34 36 37 37 38 38 38 38 37 37 36 35 34 34 33 33 36 39 41 43 44 45 46 46 46 45 45 44 43 42 41 40
6 7 5 2 5 8 6 2 3 6 3 5 4 5 1 4 3 3 3 0 4 8 5 9 9 9 13 7 3 9 6 5 8 9 13 13 16 28 32 32 31 28 29 31 30 29 28 28 29 29 29 31 31 32 34 36 37 38 38 39 39 38 37 38 38 36 35 34 32 31 32 36 40 42 43 45 45 46 46 46 46 46 45 44 43 42
4 6 5 3 4 10 10 5 4 3 3 7 6 6 5 3 1 2 4 3 5 7 5 5 6 5 8 4 8 14 13 13 14 16 22 22 23 31 31 28 27 26 28 30 30 29 29 30 30 28 28 30 30 31 34 36 37 38 38 39 39 38 38 39 39 38 36 35 33 31 30 33 38 40 42 43 45 45 46 46 47 46 46 45 44 43
4 8 6 9 4 10 15 13 12 5 4 7 6 6 6 5 5 4 5 6 6 6 6 3 5 4 4 2 8 11 11 13 17 24 29 30 30 32 31 28 25 26 28 29 29 29 29 30 30 28 28 29 29 31 34 36 37 38 39 39 39 39 39 39 40 39 37 35 34 34 32 32 34 38 40 42 44 45 45 46 47 46 45 45 44 42
5 11 8 8 3 10 13 12 9 6 1 4 4 4 3 5 7 5 5 6 2 4 6 3 5 6 4 6 8 8 10 10 13 21 22 24 30 30 29 31 30 28 28 27 28 28 29 30 29 29 28 28 29 31 34 37 38 38 39 39 39 38 38 38 39 39 38 36 36 36 35 33 33 35 38 41 43 45 45 46 46 45 44 43 42 41
5 7 3 3 1 5 6 3 4 5 3 2 3 4 4 3 6 4 5 2 2 4 8 4 5 6 6 8 8 7 11 9 8 11 11 18 28 27 28 33 32 27 26 27 28 27 27 28 29 29 28 27 28 30 34 36 38 39 39 40 39 40 40 40 40 39 38 38 38 38 38 37 35 33 34 38 41 43 44 45 45 44 43 43 42 41
7 6 2 5 2 3 1 2 2 1 3 6 4 6 2 3 2 3 1 2 1 6 8 6 9 8 6 8 4 4 4 7 8 10 10 16 23 22 27 33 29 25 25 26 27 26 26 26 28 29 28 26 25 28 32 34 36 38 40 40 40 41 42 40 38 38 38 39 39 38 39 39 38 35 34 36 39 41 43 44 44 43 43 43 42 41
4 6 4 4 3 2 2 1 3 4 3 5 3 2 3 1 2 2 3 3 5 7 8 10 14 10 7 9 6 4 7 9 10 12 13 14 15 18 26 30 25 23 25 26 27 26 25 27 28 28 27 24 24 27 32 34 36 38 39 41 41 42 43 40 38 38 38 39 39 39 40 40 41 40 38 37 38 40 42 43 43 43 43 43 43 43
3 4 5 1 2 1 2 1 4 2 0 1 2 3 1 2 4 3 3 3 5 9 8 10 12 10 8 6 5 7 10 9 10 11 11 11 14 20 27 28 27 26 26 27 27 27 27 29 29 27 26 23 23 27 32 35 36 35 38 42 44 44 45 44 42 40 38 37 38 40 42 43 43 43 43 41 39 40 41 42 42 43 43 44 45 44
2 4 7 1 2 1 2 4 8 8 6 3 2 3 3 2 2 1 2 2 4 8 7 8 10 10 8 3 1 5 7 8 9 10 10 11 17 25 29 30 31 29 28 28 28 28 30 32 30 28 26 23 25 29 32 35 35 34 37 43 46 46 46 46 45 42 39 37 37 40 44 45 45 45 45 45 43 41 40 41 41 42 43 44 45 45
0 3 6 1 1 5 6 5 8 11 10 8 7 7 6 6 3 2 6 5 4 5 6 8 9 10 9 3 1 3 3 5 8 8 9 12 20 28 31 31 32 30 30 29 28 29 33 33 29 26 25 24 26 30 32 34 35 35 37 41 45 48 47 46 45 43 40 38 37 38 42 46 48 47 47 47 46 44 41 40 41 42 43 44 45 46
2 1 5 5 5 7 7 3 3 7 7 4 4 5 6 5 5 6 9 6 5 5 5 8 10 9 12 12 9 8 6 6 9 10 9 13 22 29 32 32 32 32 31 29 27 29 33 32 26 22 23 26 27 27 29 32 35 36 37 39 44 49 49 46 44 43 42 41 38 37 42 47 49 50 49 48 48 47 43 41 42 43 44 44 45 45
2 1 5 7 5 5 5 3 2 2 1 1 3 3 4 3 4 7 7 4 5 7 6 9 10 8 10 12 10 9 9 7 9 12 12 16 25 32 33 31 30 29 29 29 28 30 32 29 24 23 24 27 29 29 29 32 35 37 38 38 41 46 49 46 45 45 45 44 41 38 41 46 48 50 51 50 49 49 46 44 44 44 45 44 44 45
2 2 2 4 5 4 5 4 4 2 2 2 4 4 6 6 5 5 4 2 5 9 11 11 9 7 8 10 11 13 16 13 11 13 14 16 21 24 23 23 25 26 27 28 30 31 31 28 26 27 28 29 31 32 32 33 35 38 38 37 38 42 46 48 46 45 45 46 44 40 39 43 47 50 52 51 50 50 49 48 46 46 46 45 44 45
3 3 3 4 7 8 8 7 7 5 2 1 3 5 7 8 8 6 4 5 7 10 12 11 9 10 8 11 17 22 24 22 18 16 17 20 23 22 20 21 24 26 27 30 32 32 31 31 31 32 32 32 33 33 34 34 36 39 39 36 35 38 42 47 48 46 45 46 46 42 39 41 45 49 51 52 51 51 51 50 48 47 46 45 44 45
2 3 6 10 12 11 12 10 4 1 2 4 6 8 8 8 9 7 4 7 9 9 11 11 13 16 13 13 20 24 26 27 23 19 19 24 30 33 32 30 30 32 34 34 33 33 33 35 36 36 35 35 34 33 34 36 38 41 40 36 34 36 40 45 47 46 46 46 46 44 40 39 43 46 48 51 52 51 51 50 49 48 47 45 44 45
2 5 11 15 17 15 14 14 11 8 11 13 13 14 14 12 13 11 10 13 12 10 13 15 17 20 18 17 23 26 27 28 24 20 20 23 30 37 38 35 34 38 38 35 34 34 36 37 37 36 37 36 35 35 35 37 40 42 42 38 35 36 39 42 45 46 46 45 46 45 40 39 41 44 47 50 52 52 51 50 50 49 47 45 44 44
3 8 13 14 19 20 18 19 20 19 18 19 19 20 21 20 18 17 18 20 17 15 16 16 19 22 20 20 24 26 27 26 26 28 28 28 33 37 36 33 35 38 35 31 32 34 35 37 37 38 39 37 36 36 37 38 41 43 43 40 36 36 38 40 43 45 45 45 45 44 41 39 41 44 47 49 51 51 51 50 50 48 46 45 43 44
4 7 12 16 20 20 21 22 23 23 21 20 21 22 23 23 22 22 23 23 22 22 21 21 25 26 21 20 23 26 29 30 31 35 35 34 38 40 37 34 35 36 32 29 33 35 37 39 39 38 38 37 38 38 38 40 41 42 44 42 39 39 40 40 42 44 44 44 44 43 41 41 42 45 47 49 50 51 51 50 49 48 46 45 44 44
8 8 12 14 14 15 20 23 23 24 23 22 23 23 22 23 24 24 23 20 19 21 24 26 26 23 20 21 23 26 31 30 28 31 35 40 45 43 38 36 33 32 32 33 35 36 38 38 38 37 37 38 39 39 40 42 42 42 43 43 42 42 41 41 42 43 43 43 42 42 42 41 43 45 46 48 50 50 50 50 49 48 46 45 44 44
7 7 7 9 9 9 16 21 23 23 24 24 24 23 24 25 23 22 20 18 19 22 26 25 21 16 18 21 21 22 26 27 26 27 31 41 47 41 34 33 32 29 31 34 35 35 36 37 38 38 39 40 41 42 42 41 41 42 44 44 44 43 42 42 42 42 42 41 40 41 41 42 43 45 46 47 49 49 50 49 49 48 47 45 44 44
6 6 6 8 9 8 13 19 20 19 18 16 17 23 29 28 25 23 20 21 23 22 20 18 16 17 19 18 18 20 23 24 25 28 32 37 40 38 35 36 35 32 33 34 35 35 36 37 38 39 40 42 42 40 38 36 38 41 42 42 42 42 42 42 41 41 41 40 40 41 41 42 43 44 45 47 47 48 49 49 48 48 46 45 44 44
6 8 8 8 7 8 12 16 15 13 12 10 13 23 29 28 27 25 23 25 27 23 20 18 18 20 19 17 18 21 23 26 31 36 36 31 30 33 37 38 35 32 32 33 33 34 35 37 39 39 40 41 39 36 33 33 35 37 37 39 40 40 40 40 40 40 40 40 40 40 41 42 42 43 45 46 46 47 48 48 48 47 46 44 44 45
8 9 8 7 6 7 9 12 12 10 8 6 8 17 24 27 29 29 27 27 27 25 25 25 23 23 22 21 21 23 27 35 41 38 33 31 32 36 39 40 39 37 35 34 34 35 38 39 40 40 40 40 36 33 31 31 32 34 35 37 38 38 39 38 39 39 39 38 39 39 40 41 41 43 44 45 46 47 47 48 48 47 46 45 44 45
13 10 6 6 7 6 5 9 11 7 2 2 6 12 17 20 21 21 22 23 24 26 26 25 24 24 23 22 25 31 36 39 36 33 34 34 33 32 33 37 43 44 41 40 39 39 40 41 42 41 40 37 33 30 30 28 28 30 32 34 35 36 36 36 37 37 37 37 37 38 39 40 41 43 44 45 46 47 48 48 48 47 46 45 45 46
15 13 8 7 7 7 8 10 11 11 7 5 7 9 11 13 14 15 17 18 17 17 18 21 23 23 21 18 22 30 34 28 20 20 25 26 28 31 31 31 32 35 36 37 40 41 42 43 42 40 36 33 30 29 27 24 23 26 29 31 32 33 34 35 36 35 35 36 36 37 38 39 41 42 44 45 46 47 48 48 48 47 46 45 47 48
13 13 11 8 6 8 10 9 8 11 10 8 9 10 12 16 18 16 15 11 6 10 12 10 10 12 11 11 16 18 14 11 7 7 18 33 36 35 36 35 33 33 34 33 32 33 36 38 39 38 35 32 30 25 21 19 21 24 27 29 30 31 33 34 35 35 35 35 35 36 37 38 40 42 44 45 46 47 48 48 48 47 46 46 47 48
12 13 10 7 5 8 10 8 7 7 4 3 6 8 12 18 16 11 10 6 6 13 17 17 16 15 15 15 18 16 9 5 3 8 24 39 39 36 37 38 37 36 35 34 32 31 29 29 32 35 33 29 25 20 17 18 20 22 25 27 28 30 33 34 34 33 32 32 32 33 35 37 39 42 44 46 47 47 47 47 47 46 46 46 47 48
7 7 7 6 7 10 12 9 7 6 2 7 10 14 17 13 6 3 5 2 6 11 16 19 15 14 17 18 17 12 8 6 7 17 33 41 40 39 39 39 42 41 38 37 35 34 31 26 25 27 26 22 19 16 16 17 19 21 22 24 26 28 30 30 30 30 30 32 32 33 35 37 39 42 45 46 47 47 47 46 46 46 46 47 48 49
4 4 6 7 8 12 14 12 10 5 2 9 12 17 24 18 2 3 4 8 7 11 18 19 16 18 21 17 13 10 11 14 18 28 38 39 39 43 43 41 43 44 42 41 38 37 36 30 25 25 26 24 20 17 17 18 19 21 21 22 23 23 22 23 27 30 31 33 34 34 35 37 39 42 44 46 46 46 46 46 46 45 46 48 50 50
5 4 4 5 6 8 11 13 12 5 4 12 15 17 22 13 2 2 13 16 10 15 23 23 19 22 23 19 16 17 22 26 29 32 37 39 40 43 44 44 44 44 43 44 41 39 39 36 31 27 27 28 26 22 20 19 20 20 21 22 20 18 18 22 27 30 31 32 33 33 35 38 39 42 44 46 46 46 45 46 46 46 46 48 50 50
5 5 5 5 5 5 7 9 8 4 6 16 16 13 13 6 5 12 17 14 11 19 25 25 24 25 25 25 27 28 28 30 30 31 34 38 40 41 42 42 41 41 41 41 41 39 37 36 35 32 29 30 30 29 26 22 20 19 21 22 20 19 21 24 27 29 30 32 33 34 36 38 40 43 44 46 46 46 46 47 47 47 48 50 51 52
5 4 4 4 3 4 4 4 2 3 6 10 9 5 7 10 16 18 15 11 16 24 25 24 27 30 27 27 31 33 31 30 30 30 32 36 38 40 41 41 40 39 39 38 38 37 36 35 34 33 31 30 30 30 29 26 24 23 23 23 23 23 24 24 26 29 31 32 33 35 36 38 41 43 45 46 47 47 47 48 47 48 50 51 53 52
4 4 4 5 4 3 4 6 10 11 10 9 10 12 18 21 18 15 15 17 21 25 25 23 27 30 29 28 29 30 30 30 30 31 32 33 35 37 38 39 38 37 37 38 37 37 37 35 33 32 31 29 28 28 28 27 27 27 26 26 26 27 27 27 28 29 31 33 34 35 36 38 41 43 45 46 47 48 49 49 48 49 52 53 54 53
6 7 6 5 6 7 7 10 13 14 17 24 25 20 18 18 14 14 20 22 21 24 26 24 24 25 26 25 25 26 28 29 31 32 31 30 32 33 34 36 37 37 37 38 38 39 38 37 35 32 31 29 27 26 27 28 27 27 26 26 27 29 30 30 30 29 31 33 35 35 37 38 40 43 45 47 48 48 48 48 49 51 54 55 56 53
5 7 8 7 8 10 10 9 10 13 20 29 29 22 15 13 15 20 23 21 19 21 21 17 17 20 23 24 25 27 29 30 31 32 33 33 33 34 36 37 39 40 39 38 39 40 38 38 37 35 34 32 30 27 26 27 28 28 28 28 28 29 30 31 31 31 32 33 35 37 37 38 39 42 44 47 48 48 49 49 49 52 55 57 57 53
7 9 9 8 9 9 9 12 16 21 24 26 26 25 21 17 18 20 19 17 16 16 15 15 19 23 25 28 28 27 30 32 32 32 35 37 37 37 37 38 39 40 40 39 38 37 36 37 38 37 36 36 34 30 28 28 29 29 29 30 30 31 32 32 32 32 33 34 36 37 38 37 39 41 43 46 48 49 50 51 52 54 56 58 57 53
10 10 8 8 9 10 10 10 13 17 18 20 23 24 22 19 18 16 15 16 17 17 18 21 24 26 27 29 30 29 30 34 34 34 35 37 38 38 37 37 37 38 39 39 38 36 36 37 38 39 40 40 38 35 32 31 31 30 30 31 32 34 35 35 34 33 34 35 37 38 39 38 39 41 44 46 48 49 50 51 52 54 55 55 54 51
9 8 7 7 8 9 7 7 10 11 10 15 23 21 14 12 14 15 17 18 18 19 20 22 27 30 31 31 32 32 33 35 37 36 35 36 37 38 38 38 39 39 39 39 39 38 38 38 38 39 41 42 41 39 36 35 34 34 33 33 34 36 37 37 36 35 36 37 39 40 40 40 41 42 44 46 48 50 51 51 52 53 53 53 50 47
11 9 9 8 8 11 14 17 19 14 10 16 25 22 13 10 12 16 20 21 20 19 21 22 27 31 33 34 34 32 33 36 38 37 36 37 39 39 40 41 41 42 42 42 40 40 40 40 39 39 40 41 41 40 39 38 37 36 36 35 35 36 38 38 37 38 39 39 40 41 42 42 42 43 45 47 49 51 53 54 54 52 51 50 48 44
Wind_Direction
180 179 165 197 229 226 211 203 217 232 236 247 254 257 255 256 264 258 263 242 184 195 219 216 233 238 246 255 251 252 254 252 251 248 243 242 243 246 248 248 249 253 260 265 264 262 262 261 258 251 247 244 243 241 240 237 235 235 233 233 234 235 236 236 233 231 229 228 227 227 228 229 229 229 231 231 232 232 232 232 232 232 232 233 236 237
177 185 212 217 230 231 215 209 222 235 240 249 251 259 259 249 263 259 255 251 191 195 244 227 239 246 244 254 256 250 247 240 243 247 248 245 243 245 248 250 252 256 260 262 262 262 261 258 253 246 242 240 239 238 237 237 235 234 233 234 235 235 235 236 236 235 234 233 233 233 234 234 233 233 234 235 235 234 233 233 233 232 232 233 235 236
205 219 225 223 231 240 236 219 221 232 231 242 245 255 262 245 270 266 242 251 205 188 250 241 242 250 247 254 260 254 241 236 241 243 249 252 251 249 250 252 253 256 259 259 260 261 260 256 249 240 238 238 238 238 238 237 234 233 233 234 234 235 236 237 237 237 237 237 237 238 239 238 236 236 236 237 237 236 234 234 233 233 232 234 235 235
228 229 226 225 227 234 247 237 229 247 241 238 240 250 261 247 265 268 241 252 233 203 250 258 255 256 256 264 264 255 249 245 246 246 249 254 256 256 256 255 256 257 258 259 259 258 256 251 241 235 235 236 235 235 236 235 233 233 233 233 233 234 236 236 237 237 238 237 237 238 238 238 238 237 237 236 235 235 234 233 232 232 233 233 235 235
241 229 212 214 217 223 241 241 226 250 257 242 232 234 253 249 245 255 270 308 295 285 283 278 284 270 232 247 256 253 251 249 249 248 250 253 254 257 259 259 258 257 257 258 257 253 249 243 238 234 233 234 233 234 235 234 233 234 234 234 234 234 235 236 237 236 235 235 234 234 233 232 232 232 232 232 231 230 231 232 232 233 233 233 233 234
249 236 203 196 215 220 231 240 212 209 252 258 225 213 236 245 246 254 283 325 317 297 281 229 278 275 205 222 245 250 250 252 247 242 246 250 251 253 256 258 258 258 257 257 256 251 246 241 235 231 231 232 233 235 236 236 235 235 235 234 233 233 234 235 235 235 235 235 234 233 231 229 228 228 229 230 232 231 232 233 233 232 233 233 233 233
240 223 198 196 216 213 217 240 213 196 237 269 226 204 225 237 249 258 271 293 263 264 271 144 233 274 244 214 235 239 240 253 249 237 240 245 248 249 251 254 256 257 257 255 253 247 242 238 230 227 230 233 235 236 235 235 235 234 233 233 232 232 233 233 234 234 234 235 235 235 235 235 234 233 234 235 235 236 237 237 235 234 233 233 233 233
203 200 197 209 217 206 212 237 215 183 214 264 220 189 210 226 244 252 235 223 236 269 281 141 140 281 279 234 207 212 219 245 253 248 245 242 244 246 248 252 254 255 258 258 250 242 237 235 230 229 232 234 236 235 233 232 231 231 231 231 231 231 233 233 233 234 235 236 236 237 237 237 238 239 241 240 239 239 239 238 237 236 235 233 232 233
166 186 205 204 201 206 218 229 190 165 206 250 166 160 174 198 226 177 171 224 295 330 279 197 134 281 280 247 180 204 212 228 245 244 243 241 240 242 245 251 254 255 259 260 254 244 238 236 233 233 234 236 236 233 232 231 229 229 228 229 229 230 232 232 233 234 235 237 238 239 239 239 240 240 241 241 240 240 239 238 237 235 235 234 232 233
204 183 193 168 178 216 210 198 165 169 215 227 112 86 68 61 42 69 76 80 36 305 255 191 152 218 276 270 152 184 209 212 234 238 237 237 237 240 243 248 254 257 259 260 255 248 243 240 236 233 233 234 235 233 232 230 229 228 227 227 228 228 230 230 231 232 233 236 238 241 241 241 240 239 238 238 238 238 238 237 237 235 234 233 232 232
246 105 138 167 190 200 145 99 117 163 199 134 88 53 30 14 24 54 19 68 43 277 232 177 178 190 269 285 140 167 210 202 214 225 238 242 238 241 244 247 254 258 259 258 251 244 242 239 232 230 232 233 233 231 229 228 226 226 225 225 227 227 228 228 229 230 231 234 238 243 244 243 242 240 238 238 237 237 237 236 236 235 234 233 232 233
258 187 214 207 182 139 104 93 354 21 100 99 89 76 25 331 12 28 354 60 220 266 209 179 185 187 237 275 142 237 268 203 208 211 227 240 240 242 245 247 250 253 254 252 245 238 235 229 222 223 228 230 229 228 226 225 224 223 224 224 226 226 226 226 226 227 230 233 237 242 245 245 244 243 241 240 239 239 238 237 236 234 233 233 232 232
266 228 200 178 188 170 138 95 346 344 51 105 104 103 69 298 349 0 306 113 224 256 228 190 184 204 239 259 269 276 287 230 221 216 222 229 236 242 244 245 244 244 247 246 239 234 231 226 220 221 226 226 225 225 223 222 222 222 222 223 224 224 223 224 225 226 228 231 235 239 245 247 245 244 243 243 242 241 241 239 238 236 235 233 232 232
287 268 173 144 252 192 166 169 229 269 178 163 148 142 168 209 223 260 256 265 261 262 253 191 168 242 275 281 232 241 244 230 221 219 226 228 234 241 242 241 242 243 243 240 235 231 232 231 227 225 228 226 224 223 221 221 221 220 221 221 222 223 223 225 226 225 227 230 233 236 242 246 246 245 244 243 243 242 242 241 240 240 239 238 238 237
245 288 190 164 224 183 178 206 209 168 153 182 156 146 175 173 174 214 236 246 268 281 271 183 163 237 289 264 214 222 247 247 229 225 228 229 235 244 245 242 244 244 238 233 231 231 234 236 233 231 232 230 228 224 220 220 220 220 221 221 221 221 223 226 226 226 227 229 232 234 237 242 246 247 245 244 244 243 242 242 241 242 242 242 242 241
215 272 221 172 153 161 182 219 198 125 86 218 122 119 203 194 187 221 258 232 204 312 280 208 201 240 254 255 241 239 262 262 234 228 230 233 237 243 246 244 244 240 232 228 227 228 233 236 235 234 235 234 232 227 223 222 222 223 223 222 222 222 223 226 227 227 228 229 231 233 235 237 242 246 246 245 244 243 243 243 242 242 243 243 242 241
227 279 238 157 40 160 186 238 172 158 209 188 124 184 214 163 169 214 288 288 113 273 271 230 236 278 312 284 261 246 253 258 253 243 237 238 239 239 242 241 240 234 227 226 227 228 232 235 236 237 236 236 234 231 228 227 227 228 228 226 224 224 225 227 229 230 230 229 231 234 235 235 238 243 247 247 245 243 242 242 242 242 242 242 241 240
234 267 235 167 223 256 228 21 333 258 141 129 179 215 176 59 107 156 245 322 272 251 265 265 261 278 300 283 302 18 290 262 256 248 237 237 238 237 238 237 235 230 225 226 228 229 233 236 238 238 236 238 241 240 235 233 233 233 232 231 229 227 227 228 231 232 232 231 232 234 235 236 237 239 245 248 246 244 242 241 240 240 240 240 239 238
230 252 259 169 187 287 29 81 294 331 88 131 206 217 106 138 222 155 168 222 240 242 259 272 274 270 254 261 289 307 266 244 236 234 234 237 238 238 240 239 235 225 220 222 225 229 235 238 239 239 238 241 247 249 242 236 236 237 237 236 234 233 232 231 232 232 233 234 235 236 237 237 237 238 240 243 244 244 242 241 240 239 239 238 237 236
216 231 256 205 170 279 32 165 203 228 278 71 4 346 14 180 180 181 177 169 222 240 253 267 277 275 247 235 252 252 240 233 234 233 234 239 239 241 243 243 239 226 218 222 227 234 242 243 241 241 242 245 253 256 247 238 238 242 245 240 236 236 234 232 233 233 235 237 238 239 238 238 238 238 238 239 242 243 243 242 241 240 240 238 237 236
215 235 243 277 10 246 214 198 179 182 194 182 210 248 261 225 165 225 236 176 219 239 246 252 261 269 252 187 148 266 239 224 229 228 231 235 236 242 245 245 243 234 226 228 234 241 246 245 244 245 245 247 254 255 247 241 241 246 250 246 241 238 236 234 234 235 237 237 238 242 242 239 238 238 238 238 239 241 242 242 242 241 240 238 238 237
178 252 248 237 266 243 250 234 191 191 192 183 197 207 205 205 190 249 250 227 230 242 242 249 254 263 265 256 0 304 242 223 229 224 233 238 234 238 244 249 250 244 237 238 244 250 251 248 245 247 249 253 256 256 250 245 245 249 256 256 248 241 238 237 237 237 237 237 239 245 246 241 238 238 238 238 238 239 240 242 243 241 239 237 237 237
102 198 264 259 240 248 272 278 195 209 214 199 217 212 200 191 181 229 248 245 252 251 243 254 255 255 268 276 287 292 280 253 238 227 230 242 239 238 240 246 250 246 243 245 251 258 256 250 244 246 255 260 261 259 252 248 249 255 262 263 254 245 241 239 239 239 238 237 239 245 246 242 239 238 238 238 238 238 239 242 243 241 238 236 236 235
41 160 251 262 274 297 302 321 44 60 107 251 283 240 199 199 208 236 253 256 258 254 246 255 255 247 264 276 284 292 298 289 258 243 240 243 243 241 240 240 240 241 245 250 256 260 256 247 243 249 255 259 260 258 254 252 256 260 263 264 260 252 245 241 241 240 238 238 239 242 245 244 242 240 239 239 240 239 239 240 241 240 237 235 234 234
291 227 194 240 257 287 304 293 267 244 135 177 236 222 208 214 232 258 272 254 249 248 246 256 263 254 268 294 305 301 300 300 281 263 262 264 258 254 251 246 242 243 248 254 260 261 253 245 246 250 253 256 259 257 255 257 261 263 263 264 267 263 251 243 241 240 240 239 238 240 245 246 244 242 240 240 241 240 239 239 239 238 235 233 233 232
211 205 147 208 223 228 234 237 235 223 187 204 224 223 217 204 207 229 250 250 248 244 242 249 261 260 272 299 299 291 288 285 276 268 271 272 271 273 273 266 260 256 255 258 261 259 253 250 250 251 252 256 258 257 256 260 264 266 263 262 268 270 259 247 242 241 241 239 238 240 245 247 246 245 243 241 240 240 238 238 237 236 234 232 231 231
152 190 198 220 224 225 230 234 237 151 199 247 240 231 229 214 212 215 222 241 244 248 247 243 251 260 262 270 274 274 275 275 275 273 267 261 262 267 269 267 265 263 261 260 259 258 257 255 251 251 253 255 257 257 259 263 267 267 263 259 263 269 265 253 245 242 241 240 240 241 246 250 250 248 246 242 239 238 238 237 237 235 233 232 230 230
135 214 215 224 230 234 241 247 255 255 244 247 245 240 241 237 231 229 232 235 233 243 250 240 241 252 251 248 255 261 266 270 272 271 267 262 260 262 264 264 263 263 261 259 257 257 258 255 251 252 253 253 254 257 261 265 268 266 261 257 260 265 266 258 248 242 242 241 240 242 248 254 252 248 245 241 238 237 237 236 236 235 233 231 230 230
181 230 220 227 234 233 237 242 244 247 245 243 244 245 246 244 239 234 236 236 232 239 252 249 247 251 249 244 247 251 258 264 269 272 274 273 268 264 262 259 258 260 259 256 256 257 256 254 251 249 249 251 254 257 262 266 267 265 258 255 257 261 263 259 249 242 241 241 241 243 248 251 248 244 241 238 236 236 236 236 235 233 232 230 230 229
188 228 213 226 237 232 230 233 235 239 241 240 241 241 243 246 243 239 239 240 241 247 256 258 256 254 252 248 247 250 254 261 270 276 277 274 269 266 264 260 258 261 262 258 257 258 258 256 250 246 248 252 255 259 264 267 265 262 258 255 255 259 260 256 248 243 242 243 243 244 246 247 244 241 239 237 236 235 235 234 233 232 231 230 229 228
202 219 208 221 239 233 229 231 231 232 236 238 239 240 242 246 247 246 246 248 251 255 256 253 253 256 255 252 252 255 260 264 268 271 271 269 267 267 268 267 266 266 266 264 261 259 256 253 249 249 253 256 259 263 267 267 263 259 257 255 255 258 258 254 248 245 244 245 244 242 243 244 242 240 238 237 235 234 234 234 233 232 230 229 228 227
204 224 212 221 244 232 224 230 232 232 236 238 239 241 243 242 244 245 244 242 243 248 251 251 250 251 250 250 252 255 259 260 260 261 263 265 268 271 275 277 275 270 264 264 263 259 255 253 253 256 260 263 266 268 268 265 261 258 256 255 255 256 256 253 249 246 245 244 242 242 243 244 242 240 238 237 235 234 234 233 232 231 229 228 227 227
201 225 224 226 244 236 220 227 233 233 237 236 229 232 236 239 243 244 243 244 242 243 248 249 246 246 248 249 252 253 252 252 252 253 256 262 269 276 279 278 275 270 265 264 262 258 256 256 258 261 265 270 271 270 268 264 261 259 257 256 256 256 254 252 249 247 245 243 242 244 245 244 242 240 238 236 235 234 233 232 231 230 229 228 227 226
204 224 232 229 244 244 228 231 236 234 235 229 209 215 224 231 237 240 241 241 240 240 243 244 245 250 251 248 246 247 249 250 250 252 255 262 272 275 275 276 276 274 270 265 260 256 256 259 262 265 270 273 272 271 269 265 261 260 259 257 256 255 252 250 248 245 244 243 244 244 244 242 240 239 237 235 234 233 232 231 231 230 229 227 226 224
229 228 233 232 247 252 235 234 241 235 231 228 203 205 216 224 231 238 243 243 244 246 248 249 250 249 248 248 248 248 251 253 256 261 265 268 269 270 273 277 278 275 271 267 263 260 261 264 267 269 273 272 271 273 275 269 262 259 257 255 253 251 249 247 245 244 242 242 243 242 240 239 238 236 235 233 233 232 231 231 230 229 227 226 225 224
235 235 234 232 237 246 236 227 237 249 234 163 188 200 213 223 232 245 253 252 249 248 248 250 250 248 249 250 250 252 255 259 263 268 272 277 284 292 295 292 287 284 279 276 275 274 274 275 275 275 275 270 269 277 278 269 260 255 253 252 250 248 246 244 242 241 240 240 240 239 238 237 236 235 234 232 232 231 230 230 229 228 226 224 223 221
228 231 233 230 219 226 241 236 244 266 265 219 203 200 205 213 218 232 248 251 251 256 262 261 258 260 263 263 266 268 265 267 272 271 284 314 340 347 343 336 326 317 308 298 291 287 285 284 281 277 272 267 269 275 274 263 252 250 249 249 249 246 244 242 240 239 238 238 238 238 237 237 236 235 234 232 232 231 230 229 228 226 224 222 220 218
228 232 237 244 223 223 245 247 247 257 251 236 231 218 210 213 214 222 239 255 308 355 351 334 317 319 323 327 331 321 297 281 274 288 333 347 352 351 349 351 353 351 346 337 324 311 301 294 288 280 271 267 269 270 266 257 249 246 246 246 246 245 242 240 238 237 236 236 237 237 238 238 237 236 235 234 233 232 230 228 227 225 223 221 218 216
236 235 239 251 240 234 247 252 251 251 253 284 272 257 241 231 226 240 258 268 6 15 18 25 26 22 19 7 359 3 12 356 319 328 337 336 335 336 338 340 343 348 351 352 352 347 333 319 308 296 279 269 271 274 269 260 250 244 243 243 242 242 240 239 237 236 236 236 237 238 239 240 239 238 237 235 234 232 230 228 226 224 221 219 217 215
250 238 242 248 245 250 253 259 263 257 356 12 341 325 312 285 237 232 269 290 20 12 17 25 23 18 14 4 0 10 18 0 323 312 319 322 322 326 330 332 335 337 338 341 348 350 347 345 339 324 303 289 290 291 282 269 255 247 244 242 241 241 243 243 241 239 238 236 236 238 239 240 239 239 238 236 234 231 229 227 225 222 219 217 214 214
296 272 254 244 250 255 251 258 269 257 23 5 344 341 338 328 298 138 294 306 337 0 9 13 7 0 358 354 357 353 326 314 307 305 312 317 319 323 328 332 333 332 333 334 337 340 342 345 347 342 332 322 314 304 293 280 266 256 247 241 243 247 252 252 246 240 239 237 237 238 239 239 240 239 238 235 232 230 228 226 225 222 218 215 212 211
319 303 270 254 267 264 251 259 266 246 50 12 353 2 5 350 267 290 312 306 325 360 357 352 347 345 342 336 332 323 312 311 311 311 315 319 321 324 328 331 332 333 333 333 333 336 338 337 336 338 338 334 328 321 312 296 279 269 255 248 255 261 260 252 244 240 239 239 239 240 239 239 238 237 235 233 231 229 227 225 224 221 218 215 212 210
308 302 296 282 280 280 265 261 255 240 20 10 359 9 28 21 281 295 301 304 345 357 343 333 332 334 333 327 322 317 313 313 314 316 319 321 322 325 327 329 331 332 332 333 333 335 335 333 331 331 331 330 329 328 322 309 294 282 269 267 272 270 261 253 247 242 241 240 240 240 239 238 237 235 234 232 230 227 226 224 221 218 217 215 212 211
285 280 282 287 311 317 280 269 303 317 350 12 13 349 335 313 290 286 292 316 339 337 331 325 324 325 326 321 316 314 314 314 316 319 321 322 324 326 327 328 330 331 332 334 334 334 334 331 329 329 328 325 323 321 318 313 306 298 291 290 287 275 266 261 254 247 243 242 241 240 240 239 237 235 233 231 228 225 223 223 220 217 214 213 212 211
293 285 262 263 283 287 254 281 311 314 312 323 322 312 317 315 300 293 312 324 324 323 322 317 314 317 321 319 313 311 311 313 318 321 322 323 325 325 326 328 329 330 333 333 333 334 333 330 327 326 325 324 321 317 312 308 304 300 298 298 292 281 274 268 260 254 249 245 243 241 241 239 237 235 233 231 228 225 222 221 218 215 213 211 211 211
305 306 295 286 292 292 277 275 290 305 310 308 308 314 322 318 307 310 319 317 313 315 314 310 312 319 324 326 325 320 317 319 322 323 325 326 326 326 325 325 324 326 328 327 327 328 328 327 325 322 318 316 316 315 312 308 304 300 299 297 292 285 279 272 265 261 255 250 246 243 241 240 237 235 233 231 228 226 224 221 218 215 212 210 209 210
294 302 299 297 298 296 291 290 297 304 303 301 304 314 318 303 302 315 321 319 320 323 324 326 330 330 330 334 334 327 322 322 322 322 323 323 321 320 319 318 318 319 319 320 321 322 323 322 321 319 316 312 308 307 307 305 303 301 299 297 293 289 284 277 271 267 263 257 251 246 243 242 240 237 234 230 226 223 222 221 219 216 213 211 209 208
295 314 304 284 280 278 282 295 297 292 290 293 301 310 311 306 311 320 324 323 324 330 336 335 331 329 328 328 328 324 320 319 319 318 317 316 316 315 314 313 313 313 313 315 317 317 317 315 313 313 312 310 308 307 304 300 296 295 293 292 291 290 287 280 275 272 269 263 256 251 247 245 243 241 236 231 227 223 221 219 217 217 216 213 211 208
279 295 287 274 283 284 282 285 283 282 288 295 299 304 309 314 319 321 321 319 321 327 328 323 322 325 325 324 323 322 318 315 316 316 314 312 312 311 310 309 309 309 311 312 313 313 311 309 307 307 305 303 304 306 304 300 296 292 289 286 285 284 283 279 274 270 268 263 257 253 249 246 245 242 237 232 227 223 221 219 217 216 215 213 213 212
263 270 270 276 285 281 275 277 282 288 296 295 297 304 314 314 310 309 314 320 323 324 324 323 321 321 320 319 320 319 316 315 315 315 313 310 309 308 309 309 309 309 310 310 311 310 308 306 305 305 303 301 301 302 301 298 295 293 289 285 281 279 279 276 271 267 263 258 254 252 249 246 244 241 236 231 226 221 217 215 215 215 213 211 211 212
245 249 254 261 267 267 270 277 282 286 286 287 295 305 315 313 310 311 314 318 321 322 323 323 319 317 317 316 317 316 315 314 313 313 312 309 307 307 308 309 309 309 310 310 309 308 306 305 304 303 301 301 301 301 299 295 293 292 290 287 283 279 276 272 268 265 261 256 254 253 250 247 244 240 234 229 224 220 215 210 209 209 210 210 210 210